DW9151 Weather Reports


Display with metric or nautical units.
time (UTC)temp
F
wind
direction
speed
MPH
gust
MPH
rain 1hr
in
rain 24hr
in
rain mn
in
humidity
%
barometer
mb
20260904171604 60 194 5.0 10.0 0.00 0.00 0.00 80 1018.2
20260904171104 60 311 3.0 8.0 0.00 0.00 0.00 82 1018.2
20260904170605 60 310 5.0 9.0 0.00 0.00 0.00 84 1018.3
20260904170104 60 193 3.0 6.0 0.00 0.00 0.00 83 1018.2
20260904165604 60 321 3.0 8.0 0.00 0.00 0.00 83 1018.2
20260904164104 61 181 5.0 9.0 0.00 0.00 0.00 83 1018.3
20260904163605 62 245 6.0 10.0 0.00 0.00 0.00 83 1018.3
20260904163104 62 174 5.0 12.0 0.00 0.00 0.00 83 1018.3
20260904162606 61 158 6.0 10.0 0.00 0.00 0.00 83 1018.4
20260904162104 61 92 6.0 13.0 0.00 0.00 0.00 83 1018.3
20260904161605 62 181 6.0 10.0 0.00 0.00 0.00 83 1018.3
20260904161104 61 152 6.0 12.0 0.00 0.00 0.00 84 1018.2
20260904160604 62 143 8.0 12.0 0.00 0.00 0.00 84 1018.2
20260904155605 62 157 5.0 9.0 0.00 0.00 0.00 82 1018.3
20260904155104 62 142 6.0 12.0 0.00 0.00 0.00 82 1018.4
20260904154604 63 160 7.0 12.0 0.00 0.00 0.00 82 1018.4
20260904154104 63 295 5.0 10.0 0.00 0.00 0.00 81 1018.4
20260904153105 63 279 3.0 8.0 0.00 0.00 0.00 81 1018.5
20260904152604 63 168 3.0 9.0 0.00 0.00 0.00 80 1018.6
20260904152104 63 157 6.0 12.0 0.00 0.00 0.00 80 1018.6
20260904151104 63 157 6.0 12.0 0.00 0.00 0.00 79 1018.6
20260904150604 63 162 4.0 7.0 0.00 0.00 0.00 79 1018.7
20260904150105 64 151 6.0 12.0 0.00 0.00 0.00 78 1018.7
20260904145607 64 180 5.0 7.0 0.00 0.00 0.00 78 1018.8
20260904145104 64 158 5.0 8.0 0.00 0.00 0.00 78 1018.8
20260904144604 65 167 2.0 6.0 0.00 0.00 0.00 79 1018.9
20260904144104 65 177 3.0 5.0 0.00 0.00 0.00 77 1018.9
20260904143604 65 170 2.0 6.0 0.00 0.00 0.00 79 1018.9
20260904143104 65 170 4.0 7.0 0.00 0.00 0.00 78 1018.9
20260904142605 65 211 2.0 5.0 0.00 0.00 0.00 77 1019.0
20260904142104 65 156 3.0 7.0 0.00 0.00 0.00 78 1019.0
20260904141605 65 156 3.0 5.0 0.00 0.00 0.00 78 1018.9
20260904141104 65 150 4.0 7.0 0.00 0.00 0.00 78 1019.0
20260904140604 65 153 2.0 6.0 0.00 0.00 0.00 78 1019.0
20260904135604 66 159 2.0 6.0 0.00 0.00 0.00 77 1019.2
20260904134605 65 151 5.0 8.0 0.00 0.00 0.00 76 1019.2
20260904134104 66 141 6.0 9.0 0.00 0.00 0.00 76 1019.1
20260904133604 66 151 3.0 7.0 0.00 0.00 0.00 76 1019.2
20260904132605 66 145 2.0 7.0 0.00 0.00 0.00 76 1019.3
20260904132104 65 149 3.0 8.0 0.00 0.00 0.00 76 1019.3
20260904131104 65 318 3.0 9.0 0.00 0.00 0.00 77 1019.3
20260904130605 65 157 5.0 10.0 0.00 0.00 0.00 75 1019.3
20260904130104 65 172 4.0 12.0 0.00 0.00 0.00 75 1019.3
20260904125604 66 78 4.0 9.0 0.00 0.00 0.00 74 1019.3
20260904125104 66 161 5.0 10.0 0.00 0.00 0.00 75 1019.3
20260904124604 66 142 4.0 8.0 0.00 0.00 0.00 75 1019.3
20260904124104 66 150 4.0 8.0 0.00 0.00 0.00 76 1019.4
20260904122604 65 153 6.0 12.0 0.00 0.00 0.00 78 1019.5
20260904122104 66 153 4.0 12.0 0.00 0.00 0.00 77 1019.5
20260904121605 66 136 5.0 10.0 0.00 0.00 0.00 77 1019.4
20260904121104 65 133 5.0 10.0 0.00 0.00 0.00 78 1019.5
20260904120604 65 149 5.0 10.0 0.00 0.00 0.00 80 1019.4
20260904120104 65 149 7.0 9.0 0.00 0.00 0.00 77 1019.5
20260904115604 66 143 5.0 7.0 0.00 0.00 0.00 80 1019.5
20260904115104 65 152 4.0 8.0 0.00 0.00 0.00 79 1019.5
20260904114604 65 149 5.0 8.0 0.00 0.00 0.00 77 1019.6
20260904114104 65 147 2.0 12.0 0.00 0.00 0.00 80 1019.6
20260904113604 65 142 5.0 9.0 0.00 0.00 0.00 80 1019.6
20260904113104 65 159 3.0 9.0 0.00 0.00 0.00 79 1019.6
20260904112604 65 149 6.0 9.0 0.00 0.00 0.00 77 1019.6
20260904112104 66 146 3.0 8.0 0.00 0.00 0.00 79 1019.7
20260904111604 65 149 4.0 7.0 0.00 0.00 0.00 80 1019.6
20260904111104 64 140 5.0 12.0 0.00 0.00 0.00 80 1019.6
20260904110605 65 146 4.0 8.0 0.00 0.00 0.00 78 1019.7
20260904105604 66 129 5.0 10.0 0.00 0.00 0.00 79 1019.7
20260904105104 66 142 3.0 8.0 0.00 0.00 0.00 77 1019.7
20260904104604 66 139 5.0 9.0 0.00 0.00 0.00 78 1019.8
20260904104104 67 153 3.0 9.0 0.00 0.00 0.00 77 1019.8
20260904103605 67 140 2.0 8.0 0.00 0.00 0.00 78 1019.7
20260904103104 66 133 3.0 7.0 0.00 0.00 0.00 78 1019.8
20260904102606 66 136 5.0 9.0 0.00 0.00 0.00 77 1019.8
20260904102106 66 136 5.0 10.0 0.00 0.00 0.00 77 1019.8
20260904101106 65 138 4.0 10.0 0.00 0.00 0.00 81 1019.8
20260904100606 65 137 5.0 8.0 0.00 0.00 0.00 79 1019.9
20260904100106 65 148 4.0 7.0 0.00 0.00 0.00 77 1019.9
20260904095606 66 135 5.0 8.0 0.00 0.00 0.00 79 1019.9
20260904095106 65 130 5.0 7.0 0.00 0.00 0.00 79 1019.9
20260904094606 65 143 3.0 8.0 0.00 0.00 0.00 79 1019.9
20260904094106 65 85 5.0 9.0 0.00 0.00 0.00 78 1019.9
20260904093605 64 174 5.0 9.0 0.00 0.00 0.00 78 1019.9
20260904093106 64 147 5.0 9.0 0.00 0.00 0.00 79 1019.9
20260904092605 65 128 5.0 10.0 0.00 0.00 0.00 78 1019.9
20260904092106 65 154 5.0 8.0 0.00 0.00 0.00 77 1020.0
20260904091606 65 158 3.0 7.0 0.00 0.00 0.00 76 1020.0
20260904091106 65 150 4.0 8.0 0.00 0.00 0.00 75 1020.0
20260904090606 65 138 5.0 8.0 0.00 0.00 0.00 76 1020.1
20260904090106 65 135 6.0 9.0 0.00 0.00 0.00 75 1020.1
20260904085606 66 133 3.0 8.0 0.00 0.00 0.00 77 1020.0
20260904084606 66 154 5.0 7.0 0.00 0.00 0.00 70 1020.0
20260904084106 67 152 2.0 5.0 0.00 0.00 0.00 74 1020.0
20260904083605 67 154 3.0 7.0 0.00 0.00 0.00 71 1020.1
20260904083105 66 148 3.0 5.0 0.00 0.00 0.00 73 1020.1
20260904082605 65 149 3.0 6.0 0.00 0.00 0.00 71 1020.1
20260904082106 65 147 2.0 5.0 0.00 0.00 0.00 76 1020.0
20260904081606 65 146 5.0 7.0 0.00 0.00 0.00 75 1020.1
20260904081106 66 147 3.0 7.0 0.00 0.00 0.00 73 1020.0
20260904080605 67 148 3.0 5.0 0.00 0.00 0.00 71 1020.0
20260904080106 68 125 3.0 5.0 0.00 0.00 0.00 69 1020.1
20260904074106 69 34 1.0 3.0 0.00 0.00 0.00 65 1020.1
20260904073607 68 31 1.0 3.0 0.00 0.00 0.00 65 1020.1
20260904072606 67 31 1.0 3.0 0.00 0.00 0.00 68 1020.1
20260904072105 67 31 1.0 3.0 0.00 0.00 0.00 70 1020.2
20260904071106 67 31 1.0 3.0 0.00 0.00 0.00 69 1020.0
20260904070106 67 31 3.0 5.0 0.00 0.00 0.00 66 1020.1
20260904065606 67 355 1.0 3.0 0.00 0.00 0.00 68 1020.1
20260904065105 66 352 1.0 2.0 0.00 0.00 0.00 59 1020.2
20260904064605 67 0 1.0 2.0 0.00 0.00 0.00 55 1020.2
20260904064105 66 351 1.0 3.0 0.00 0.00 0.00 66 1020.3
20260904063605 66 355 1.0 3.0 0.00 0.00 0.00 54 1020.2
20260904062606 67 353 1.0 2.0 0.00 0.00 0.00 52 1020.3
20260904062105 67 358 0.0 2.0 0.00 0.00 0.00 51 1020.2
20260904061605 66 354 0.0 3.0 0.00 0.00 0.00 55 1020.2
20260904061105 66 357 0.0 3.0 0.00 0.00 0.00 56 1020.3
20260904060605 65 350 1.0 2.0 0.00 0.00 0.00 56 1020.3
20260904060105 64 358 0.0 2.0 0.00 0.00 0.00 64 1020.3
20260904055606 63 356 1.0 3.0 0.00 0.00 0.00 59 1020.4
20260904054606 62 349 3.0 5.0 0.00 0.00 0.00 58 1020.3
20260904054105 62 0 5.0 7.0 0.00 0.00 0.00 57 1020.4
20260904053105 62 354 8.0 10.0 0.00 0.00 0.00 54 1020.4
20260904052105 61 356 7.0 8.0 0.00 0.00 0.00 55 1020.3
20260904051606 61 0 7.0 8.0 0.00 0.00 0.00 56 1020.3
20260904051105 61 0 5.0 8.0 0.00 0.00 0.00 56 1020.4
20260904050605 61 0 6.0 9.0 0.00 0.00 0.00 56 1020.3
20260904045605 61 0 6.0 10.0 0.00 0.00 0.00 56 1020.4
20260904045105 60 0 9.0 12.0 0.00 0.00 0.00 56 1020.4
20260904044105 60 0 7.0 10.0 0.00 0.00 0.00 56 1020.3
20260904043605 60 1 8.0 12.0 0.00 0.00 0.00 56 1020.3
20260904043105 60 357 8.0 12.0 0.00 0.00 0.00 57 1020.2
20260904042605 60 1 7.0 12.0 0.00 0.00 0.00 57 1020.3
20260904042105 60 2 8.0 12.0 0.00 0.00 0.00 57 1020.2
20260904041606 60 11 9.0 12.0 0.00 0.00 0.00 57 1020.3
20260904041106 60 1 9.0 12.0 0.00 0.00 0.00 57 1020.3
20260904040606 60 0 7.0 12.0 0.00 0.00 0.00 58 1020.2
20260904040106 60 19 7.0 10.0 0.00 0.00 0.00 58 1020.3
20260904035105 60 6 5.0 9.0 0.00 0.00 0.00 59 1020.2
20260904034606 60 34 3.0 8.0 0.00 0.00 0.00 59 1020.3
20260904034105 60 28 3.0 7.0 0.00 0.00 0.00 59 1020.3
20260904033606 60 44 5.0 10.0 0.00 0.00 0.00 59 1020.4
20260904033105 60 356 5.0 8.0 0.00 0.00 0.00 59 1020.2
20260904032606 60 20 5.0 9.0 0.00 0.00 0.00 59 1020.2
20260904031606 61 0 2.0 13.0 0.00 0.00 0.00 59 1020.3
20260904031105 61 7 12.0 17.0 0.00 0.00 0.00 58 1020.3
20260904030106 60 0 13.0 17.0 0.00 0.00 0.00 60 1020.2
20260904025606 60 1 9.0 15.0 0.00 0.00 0.00 60 1020.2
20260904025105 60 8 10.0 16.0 0.00 0.00 0.00 61 1020.2
20260904024606 61 9 12.0 17.0 0.00 0.00 0.00 60 1020.2
20260904024105 61 1 13.0 18.0 0.00 0.00 0.00 59 1020.3
20260904023606 61 0 13.0 18.0 0.00 0.00 0.00 59 1020.3
20260904023106 61 0 13.0 17.0 0.00 0.00 0.00 60 1020.3
20260904022605 61 0 13.0 17.0 0.00 0.00 0.00 59 1020.3
20260904022105 61 0 13.0 16.0 0.00 0.00 0.00 60 1020.4
20260904021106 61 0 11.0 16.0 0.00 0.00 0.00 62 1020.4
20260904015605 60 1 11.0 15.0 0.00 0.00 0.00 63 1020.2
20260904015105 60 0 8.0 14.0 0.00 0.00 0.00 63 1020.3
20260904014606 60 9 7.0 14.0 0.00 0.00 0.00 66 1020.3
20260904014105 60 8 3.0 9.0 0.00 0.00 0.00 66 1020.3
20260904013606 60 30 2.0 7.0 0.00 0.00 0.00 66 1020.2
20260904013105 60 41 2.0 6.0 0.00 0.00 0.00 66 1020.2
20260904012605 60 12 5.0 9.0 0.00 0.00 0.00 66 1020.2
20260904012105 60 1 5.0 8.0 0.00 0.00 0.00 68 1020.2
20260904011605 60 6 5.0 9.0 0.00 0.00 0.00 68 1020.3
20260904011105 60 1 3.0 12.0 0.00 0.00 0.00 68 1020.3
20260904010105 60 3 4.0 8.0 0.00 0.00 0.00 68 1020.4
20260904005606 60 33 3.0 6.0 0.00 0.00 0.00 68 1020.4
20260904005105 60 36 2.0 5.0 0.00 0.00 0.00 67 1020.5
20260904003605 61 0 9.0 12.0 0.00 0.00 0.00 65 1020.5
20260904003106 60 0 9.0 12.0 0.00 0.00 0.00 66 1020.6
20260904002105 60 358 7.0 9.0 0.00 0.00 0.00 71 1020.7
20260904001605 60 0 7.0 8.0 0.00 0.00 0.00 72 1020.7
20260904001105 60 0 7.0 10.0 0.00 0.00 0.00 73 1020.8
20260904000605 61 0 9.0 12.0 0.00 0.00 0.00 69 1020.8
20260903235105 60 0 9.0 12.0 0.00 0.00 0.00 76 1020.8
20260903234607 60 0 10.0 12.0 0.00 0.00 0.00 76 1020.9
20260903234105 60 352 7.0 12.0 0.00 0.00 0.00 76 1020.9
20260903232605 61 356 10.0 12.0 0.00 0.00 0.00 71 1020.9
20260903232105 61 0 7.0 12.0 0.00 0.00 0.00 70 1020.9
20260903231606 61 0 6.0 9.0 0.00 0.00 0.00 70 1020.9
20260903231105 61 0 7.0 10.0 0.00 0.00 0.00 72 1020.9
20260903230605 61 0 5.0 8.0 0.00 0.00 0.00 71 1020.9
20260903230105 61 0 2.0 5.0 0.00 0.00 0.00 70 1020.9
20260903225605 61 356 6.0 12.0 0.00 0.00 0.00 71 1021.0
20260903225105 61 2 6.0 12.0 0.00 0.00 0.00 71 1021.0
20260903224605 61 9 5.0 13.0 0.00 0.00 0.00 71 1020.9
20260903224105 61 356 5.0 12.0 0.00 0.00 0.00 72 1020.9
20260903223605 60 356 7.0 12.0 0.00 0.00 0.00 74 1020.9
20260903223105 60 0 9.0 14.0 0.00 0.00 0.00 74 1021.0
20260903222605 60 0 12.0 15.0 0.00 0.00 0.00 76 1021.1
20260903222105 60 0 7.0 13.0 0.00 0.00 0.00 72 1021.1
20260903221605 60 358 9.0 14.0 0.00 0.00 0.00 72 1021.1
20260903220105 60 0 7.0 10.0 0.00 0.00 0.00 74 1020.9
20260903215605 60 0 8.0 10.0 0.00 0.00 0.00 75 1020.9
20260903215105 60 0 6.0 8.0 0.00 0.00 0.00 76 1020.8
20260903214605 60 0 5.0 7.0 0.00 0.00 0.00 77 1020.7
20260903214105 59 0 5.0 7.0 0.00 0.00 0.00 78 1020.7
20260903213105 59 0 2.0 6.0 0.00 0.00 0.00 80 1020.7
20260903212105 59 356 6.0 10.0 0.00 0.00 0.00 82 1020.6
20260903211605 59 354 9.0 12.0 0.00 0.00 0.00 83 1020.6
20260903211105 59 0 7.0 10.0 0.00 0.00 0.00 82 1020.6
20260903210105 59 355 4.0 7.0 0.00 0.00 0.00 82 1020.6
20260903205605 59 349 3.0 6.0 0.00 0.00 0.00 82 1020.6
20260903205105 59 0 3.0 7.0 0.00 0.00 0.00 82 1020.6
20260903204605 59 8 3.0 6.0 0.00 0.00 0.00 82 1020.5
20260903204105 59 61 4.0 10.0 0.00 0.00 0.00 82 1020.5
20260903203105 59 0 6.0 12.0 0.00 0.00 0.00 82 1020.5
20260903202605 59 348 6.0 10.0 0.00 0.00 0.00 82 1020.5
20260903202105 59 354 7.0 10.0 0.00 0.00 0.00 83 1020.5
20260903201605 59 357 6.0 10.0 0.00 0.00 0.00 83 1020.6
20260903201105 59 0 5.0 8.0 0.00 0.00 0.00 82 1020.6
20260903195605 59 0 5.0 7.0 0.00 0.00 0.00 82 1020.5
20260903195105 59 0 6.0 8.0 0.00 0.00 0.00 82 1020.5
20260903194604 59 358 5.0 8.0 0.00 0.00 0.00 84 1020.5
20260903194105 59 2 5.0 8.0 0.00 0.00 0.00 84 1020.6
20260903192105 59 350 6.0 9.0 0.00 0.00 0.00 85 1020.6
20260903191604 58 275 3.0 7.0 0.00 0.00 0.00 84 1020.6
20260903191104 58 241 5.0 9.0 0.00 0.00 0.00 85 1020.6
20260903190605 58 315 5.0 8.0 0.00 0.00 0.00 85 1020.6
20260903190105 58 249 3.0 7.0 0.00 0.00 0.00 85 1020.6
20260903185605 58 291 3.0 7.0 0.00 0.00 0.00 85 1020.6
20260903185105 58 317 5.0 9.0 0.00 0.00 0.00 85 1020.5
20260903184604 58 227 5.0 9.0 0.00 0.00 0.00 85 1020.5
20260903184105 58 264 5.0 9.0 0.00 0.00 0.00 85 1020.4
20260903183606 58 207 5.0 10.0 0.00 0.00 0.00 85 1020.4
20260903183105 58 288 5.0 8.0 0.00 0.00 0.00 85 1020.4
20260903182605 58 280 3.0 7.0 0.00 0.00 0.00 85 1020.3
20260903182104 58 197 4.0 10.0 0.00 0.00 0.00 85 1020.3
20260903181605 58 17 3.0 6.0 0.00 0.00 0.00 85 1020.2
20260903181104 58 295 3.0 8.0 0.00 0.00 0.00 85 1020.2
20260903180105 58 353 2.0 5.0 0.00 0.00 0.00 85 1020.1
20260903175604 58 356 2.0 6.0 0.00 0.00 0.00 85 1020.1
20260903175104 58 195 3.0 7.0 0.00 0.00 0.00 85 1020.1
20260903174604 58 188 6.0 12.0 0.00 0.00 0.00 85 1020.1
20260903173605 58 170 5.0 10.0 0.00 0.00 0.00 85 1020.0
20260903173105 58 187 6.0 12.0 0.00 0.00 0.00 86 1020.1
20260903172605 58 164 6.0 9.0 0.00 0.00 0.00 86 1020.1
20260903172104 58 169 7.0 10.0 0.00 0.00 0.00 86 1020.1